Find Kosmos-2276

NORAD ID: 23044 Int'l Des: 1994-021 Owner: VKS Country: RU Constellation: GLONASS operational
MEOCIRCULAR

当前视图

正在加载3D地球...

关于 Kosmos-2276

正在加载描述...

即将过境

Passes for default location (London). Set your location on the main map for personalized predictions.

高度历史

Loading altitude history...

两行轨道根数

1 23044U 94021B 26144.63576999 -.00000050 00000-0 00000-0 0 9996
2 23044 63.9977 301.4901 0058484 209.2788 152.8781 2.13104457249913
Epoch: May 24, 2026 • Age: 56 hours

当前状态

高度 19237.0 km
速度 3.94 km/s
星下点 -14.79°S, 64.93°E
发射日期 Apr 11, 1994
运行时间 32.1 years
类型 other

技术详情

分类 Payload
质量 1300.00 kg
干质量 1200.00 kg
总质量 1300.00 kg
长度 4.00 m
直径 1.50 m
跨度 7.80 m
形状 Cyl + Ant + 2 Pan
制造商 POL
平台类型 Uragan
阶段状态 In Orbit
所有者/国家 VKS/RU

Most Searched